FW8671 Weather Reports


time (UTC)temp
C
wind
direction
speed
KPH
gust
KPH
rain 1hr
cm
rain 24hr
cm
rain mn
cm
humidity
%
barometer
mb
20260506201551 13 209 11.3 30.6 0.00 0.08 0.08 92 1009.7
20260506195428 13 236 16.1 29.0 0.00 0.08 0.08 92 1009.7
20260506194448 13 217 12.9 27.4 0.00 0.08 0.08 92 1010.0
20260506193443 13 224 12.9 29.0 0.00 0.08 0.08 92 1010.0
20260506192420 13 223 12.9 29.0 0.00 0.08 0.08 92 1010.0
20260506190328 13 232 14.5 30.6 0.00 0.08 0.08 92 1010.3
20260506185332 13 230 12.9 30.6 0.00 0.08 0.08 93 1010.2
20260506184332 13 195 14.5 25.7 0.00 0.08 0.08 92 1010.5
20260506183330 13 204 16.1 32.2 0.00 0.08 0.08 92 1011.0
20260506182312 13 223 14.5 33.8 0.00 0.08 0.08 93 1010.9
20260506181254 13 223 14.5 33.8 0.00 0.08 0.08 93 1011.2
20260506180310 13 193 12.9 27.4 0.13 0.08 0.08 93 1011.3
20260506175318 13 204 14.5 35.4 0.10 0.05 0.05 93 1011.3
20260506174341 13 238 14.5 35.4 0.10 0.05 0.05 93 1011.5
20260506173406 13 214 14.5 35.4 0.00 0.03 0.03 92 1011.5
20260506172354 13 219 16.1 40.2 0.00 0.00 0.00 92 1011.7
20260506165137 14 201 16.1 33.8 0.00 0.00 0.00 89 1012.2
20260506162959 14 241 16.1 41.8 0.00 0.00 0.00 89 1012.3
20260506162019 14 219 17.7 38.6 0.00 0.00 0.00 88 1012.2
20260506161016 14 193 19.3 38.6 0.00 0.00 0.00 88 1012.3
20260506160038 14 231 16.1 33.8 0.00 0.00 0.00 88 1012.5
20260506155049 15 205 16.1 35.4 0.00 0.00 0.00 88 1012.6
20260506154109 15 205 16.1 35.4 0.00 0.00 0.00 88 1012.8
20260506153047 15 249 17.7 35.4 0.00 0.00 0.00 87 1012.9
20260506152100 15 176 19.3 37.0 0.00 0.00 0.00 88 1012.8
20260506151038 15 207 17.7 37.0 0.00 0.00 0.00 87 1012.8
20260506150055 15 240 16.1 33.8 0.00 0.00 0.00 88 1012.6
20260506145111 15 200 16.1 38.6 0.00 0.00 0.00 88 1012.6
20260506144124 15 215 14.5 38.6 0.00 0.00 0.00 88 1012.7
20260506141949 15 206 16.1 35.4 0.00 0.00 0.00 87 1013.2
20260506140915 15 219 17.7 37.0 0.00 0.00 0.00 87 1013.2
20260506135844 15 167 16.1 37.0 0.00 0.00 0.00 87 1013.2
20260506134827 15 235 14.5 30.6 0.00 0.00 0.00 88 1013.4
20260506133832 15 227 17.7 35.4 0.00 0.00 0.00 88 1013.5
20260506132815 15 223 16.1 32.2 0.00 0.00 0.00 88 1013.3
20260506131805 15 210 12.9 30.6 0.00 0.00 0.00 88 1013.4
20260506125724 14 242 14.5 37.0 0.00 0.00 0.00 89 1013.2
20260506124724 14 215 16.1 40.2 0.00 0.00 0.00 89 1013.1
20260506122622 15 213 14.5 32.2 0.00 0.00 0.00 89 1013.5
20260506121603 14 236 16.1 33.8 0.00 0.00 0.00 89 1013.7
20260506120600 14 209 17.7 33.8 0.00 0.00 0.00 89 1013.6
20260506115551 14 240 16.1 33.8 0.00 0.00 0.00 89 1013.4
20260506114525 14 211 14.5 32.2 0.00 0.00 0.00 90 1013.3
20260506112407 13 191 11.3 27.4 0.00 0.00 0.00 91 1013.3
20260506111404 13 213 11.3 29.0 0.00 0.00 0.00 91 1013.5
20260506110409 13 226 9.7 30.6 0.00 0.00 0.00 91 1013.4
20260506105348 13 240 12.9 30.6 0.00 0.00 0.00 91 1013.3
20260506104329 13 222 12.9 29.0 0.00 0.00 0.00 91 1013.3
20260506103344 13 231 12.9 33.8 0.00 0.00 0.00 91 1013.2
20260506102331 13 233 12.9 33.8 0.00 0.00 0.00 92 1013.2
20260506101351 13 219 11.3 30.6 0.00 0.00 0.00 92 1013.1
20260506100410 13 216 14.5 30.6 0.00 0.00 0.00 91 1013.2
20260506095411 13 264 12.9 25.7 0.00 0.00 0.00 91 1013.2
20260506094433 13 232 12.9 25.7 0.00 0.00 0.00 91 1013.3
20260506093410 13 224 11.3 29.0 0.00 0.00 0.00 92 1013.1
20260506092350 13 199 11.3 29.0 0.00 0.00 0.00 91 1013.2
20260506091355 13 225 11.3 25.7 0.00 0.00 0.00 91 1013.3
20260506090402 13 256 11.3 35.4 0.00 0.00 0.00 91 1013.5
20260506085358 13 340 11.3 35.4 0.00 0.00 0.00 91 1013.4
20260506084352 13 260 12.9 29.0 0.00 0.00 0.00 91 1013.6
20260506083342 13 207 14.5 30.6 0.00 0.00 0.00 91 1013.5
20260506072939 13 236 16.1 32.2 0.00 0.00 0.00 89 1013.8
20260506071939 13 225 14.5 37.0 0.00 0.00 0.00 89 1013.9
20260506070927 14 221 17.7 37.0 0.00 0.00 0.00 89 1013.9
20260506062026 14 201 16.1 37.0 0.00 0.00 0.00 87 1013.7
20260506060955 14 244 16.1 35.4 0.00 0.00 0.00 87 1013.8
20260506050719 15 234 14.5 32.2 0.00 0.00 0.00 86 1014.0
20260506044706 15 255 19.3 41.8 0.00 0.00 0.00 86 1013.9
20260506042527 15 227 16.1 38.6 0.00 0.00 0.00 86 1014.0
20260506041535 15 229 14.5 37.0 0.00 0.00 0.00 85 1013.9
20260506035340 14 245 14.5 37.0 0.00 0.00 0.00 85 1014.1
20260506034340 14 232 14.5 40.2 0.00 0.00 0.00 86 1014.2
20260506033319 14 228 12.9 40.2 0.00 0.00 0.00 85 1014.1
20260506032258 14 279 16.1 38.6 0.00 0.00 0.00 85 1014.1
20260506031244 14 245 16.1 38.6 0.00 0.00 0.00 85 1014.1
20260506030227 14 215 16.1 35.4 0.00 0.00 0.00 85 1014.2
20260506025209 15 215 14.5 33.8 0.00 0.00 0.00 85 1014.1
20260506024146 15 207 14.5 32.2 0.00 0.00 0.00 85 1014.1
20260506023114 15 263 12.9 30.6 0.00 0.00 0.00 85 1014.2
20260506022055 15 217 14.5 29.0 0.00 0.00 0.00 85 1014.3
20260506021024 15 0 16.1 37.0 0.00 0.00 0.00 84 1014.2
20260506014945 15 236 16.1 37.0 0.00 0.00 0.00 84 1013.9
20260506013939 15 213 14.5 30.6 0.00 0.00 0.00 84 1013.9
20260506010658 15 234 19.3 41.8 0.00 0.00 0.00 82 1013.4
20260506005630 15 217 19.3 40.2 0.00 0.00 0.00 82 1013.5
20260506004644 15 215 19.3 45.1 0.00 0.00 0.00 81 1013.4
20260506002520 15 227 19.3 41.8 0.00 0.00 0.00 81 1013.1
20260506001512 15 340 22.5 48.3 0.00 0.00 0.00 81 1013.1
20260506000502 15 339 19.3 48.3 0.00 0.00 0.00 81 1012.9
20260505235521 15 236 19.3 43.5 0.00 0.00 0.00 82 1012.9
20260505234502 15 209 19.3 46.7 0.00 0.00 0.00 81 1012.5
20260505233436 15 178 20.9 46.7 0.00 0.00 0.00 81 1012.3
20260505230250 15 242 17.7 48.3 0.00 0.00 0.00 81 1012.1
20260505225240 15 203 19.3 48.3 0.00 0.00 0.00 81 1011.9
20260505223114 16 204 19.3 45.1 0.00 0.00 0.00 80 1011.9
20260505222134 16 248 20.9 45.1 0.00 0.00 0.00 80 1011.9
20260505221114 16 209 19.3 45.1 0.00 0.00 0.00 79 1011.7
20260505220104 16 208 19.3 40.2 0.00 0.00 0.00 79 1011.8
20260505215032 16 230 20.9 46.7 0.00 0.00 0.00 79 1011.7
20260505212900 16 182 22.5 48.3 0.00 0.00 0.00 79 1011.4
20260505211907 16 198 22.5 48.3 0.00 0.00 0.00 78 1011.4
20260505210856 16 238 20.9 43.5 0.00 0.00 0.00 79 1011.3
20260505204729 16 218 19.3 43.5 0.00 0.00 0.00 78 1011.3
20260505203736 16 200 19.3 38.6 0.00 0.00 0.00 78 1011.2
20260505202702 16 103 16.1 35.4 0.00 0.00 0.00 77 1011.3